Date String (YYYY-MM-DD hh:mm:ss) UTC,Instrument flags,Ambient pressure (hPa),Sample flow (lpm),Bypass flow (lpm),Sample temperature (°C),Ambient temperature (°C),ASC tube jacket temperature (°C),LED temperature (°C),Box temperature (°C),Sample RH (%),Span deviation,Mass concentration (μg/m³),Mass concentration (μg/m³),Mass concentration (μg/m³)
DateTimeUTC,F1_M11,P_M11,Q1_M11,Q2_M11,T1_M11,T2_M11,T3_M11,T4_M11,T5_M11,U1_M11,ZSPAN_M11,X0_M11,X2_M11,X1_M11
2021-10-14 01:00:00,,0819.7,5.00,0.00,25.8,24.9,00.0,34.9,27.6,10.8,0000.0,0003.93,0001.68,0001.45
2021-10-14 01:01:00,,0819.7,5.00,0.00,25.8,24.9,00.0,34.9,27.6,10.9,0000.0,0003.90,0001.67,0001.44
2021-10-14 01:02:00,,0819.8,5.01,0.00,25.8,24.9,00.0,34.9,27.6,11.0,0000.0,0003.98,0001.69,0001.45
2021-10-14 01:03:00,,0819.8,5.00,0.00,25.8,24.9,00.0,34.9,27.6,11.0,0000.0,0003.01,0001.69,0001.46
2021-10-14 01:04:00,,0819.8,5.00,0.00,25.8,24.9,00.0,34.9,27.6,11.0,0000.0,0002.84,0001.68,0001.45
2021-10-14 01:05:00,,0819.9,4.99,0.00,25.8,24.9,00.0,34.9,27.6,11.1,0000.0,0002.58,0001.64,0001.44
2021-10-14 01:06:00,,0819.9,5.00,0.00,25.8,24.9,00.0,34.9,27.6,11.1,0000.0,0002.50,0001.63,0001.44
2021-10-14 01:07:00,,0819.8,4.99,0.00,25.8,25.0,00.0,34.9,27.7,11.1,0000.0,0002.85,0001.67,0001.45
2021-10-14 01:08:00,,0819.8,5.00,0.00,25.8,25.0,00.0,34.9,27.7,11.0,0000.0,0003.04,0001.71,0001.45
2021-10-14 01:09:00,,0819.9,5.00,0.00,25.8,25.0,00.0,34.9,27.6,10.9,0000.0,0003.17,0001.71,0001.44
2021-10-14 01:10:00,,0819.9,5.02,0.00,25.8,25.0,00.0,34.9,27.7,10.9,0000.0,0003.21,0001.72,0001.44
2021-10-14 01:11:00,,0819.9,5.00,0.00,25.8,25.0,00.0,34.9,27.7,11.0,0000.0,0003.21,0001.73,0001.45
2021-10-14 01:12:00,,0819.9,4.99,0.00,25.8,25.0,00.0,34.9,27.6,11.0,0000.0,0003.18,0001.72,0001.45
2021-10-14 01:13:00,,0820.0,4.99,0.00,25.8,25.0,00.0,34.9,27.7,10.9,0000.0,0003.11,0001.70,0001.46
2021-10-14 01:14:00,,0819.9,5.00,0.00,25.8,25.0,00.0,34.9,27.7,10.9,0000.0,0003.20,0001.74,0001.46
2021-10-14 01:15:00,,0819.9,5.00,0.00,25.8,25.0,00.0,34.9,27.7,10.9,0000.0,0003.27,0001.77,0001.46
2021-10-14 01:16:00,,0819.9,5.00,0.00,25.8,25.1,00.0,34.9,27.7,10.9,0000.0,0003.31,0001.78,0001.46
2021-10-14 01:17:00,,0819.9,4.99,0.00,25.8,25.1,00.0,34.9,27.7,10.8,0000.0,0003.37,0001.80,0001.46
2021-10-14 01:18:00,,0819.9,5.00,0.00,25.9,25.1,00.0,34.9,27.7,10.6,0000.0,0002.88,0001.79,0001.47
2021-10-14 01:19:00,,0819.9,5.01,0.00,25.9,25.1,00.0,34.9,27.7,10.7,0000.0,0002.49,0001.76,0001.48
2021-10-14 01:20:00,,0820.0,5.00,0.00,25.9,25.1,00.0,34.9,27.7,10.7,0000.0,0002.29,0001.74,0001.50
2021-10-14 01:21:00,,0820.0,4.99,0.00,25.9,25.1,00.0,34.9,27.7,10.6,0000.0,0002.25,0001.74,0001.51
2021-10-14 01:22:00,,0820.0,5.02,0.00,25.9,25.1,00.0,34.9,27.7,10.6,0000.0,0002.30,0001.78,0001.52
2021-10-14 01:23:00,,0820.0,5.00,0.00,25.9,25.1,00.0,34.9,27.7,10.6,0000.0,0002.38,0001.81,0001.54
2021-10-14 01:24:00,,0820.0,5.00,0.00,25.9,25.1,00.0,34.9,27.8,10.6,0000.0,0002.39,0001.82,0001.55
2021-10-14 01:25:00,,0820.0,5.00,0.00,25.9,25.1,00.0,35.0,27.7,10.6,0000.0,0002.29,0001.79,0001.55
2021-10-14 01:26:00,,0820.0,4.98,0.00,25.9,25.1,00.0,35.0,27.7,10.6,0000.0,0002.24,0001.79,0001.57
2021-10-14 01:27:00,,0820.0,4.99,0.00,25.9,25.1,00.0,35.0,27.7,10.6,0000.0,0002.27,0001.80,0001.59
2021-10-14 01:28:00,,0820.0,5.00,0.00,25.9,25.1,00.0,35.0,27.7,10.6,0000.0,0002.67,0001.81,0001.60
2021-10-14 01:29:00,,0820.1,5.01,0.00,25.9,25.0,00.0,35.0,27.7,10.7,0000.0,0003.62,0001.82,0001.59
2021-10-14 01:30:00,,0820.1,5.00,0.00,25.8,25.0,00.0,35.0,27.7,10.7,0000.0,0003.75,0001.85,0001.59
2021-10-14 01:31:00,,0820.2,5.00,0.00,25.8,25.0,00.0,34.9,27.7,10.7,0000.0,0003.86,0001.88,0001.59
2021-10-14 01:32:00,,0820.1,5.00,0.00,25.8,25.0,00.0,34.9,27.6,10.7,0000.0,0003.92,0001.90,0001.61
2021-10-14 01:33:00,,0820.2,5.01,0.00,25.8,25.0,00.0,34.9,27.6,10.7,0000.0,0004.02,0001.91,0001.61
2021-10-14 01:34:00,,0820.2,5.01,0.00,25.8,25.0,00.0,34.9,27.7,10.7,0000.0,0004.06,0001.91,0001.61
2021-10-14 01:35:00,,0820.2,4.99,0.00,25.8,25.0,00.0,34.9,27.6,10.7,0000.0,0004.10,0001.93,0001.61
2021-10-14 01:36:00,,0820.2,4.99,0.00,25.8,25.0,00.0,34.9,27.6,10.8,0000.0,0004.22,0001.99,0001.62
2021-10-14 01:37:00,,0820.2,5.01,0.00,25.8,25.0,00.0,34.9,27.7,10.7,0000.0,0004.26,0002.00,0001.63
2021-10-14 01:38:00,,0820.2,4.99,0.00,25.8,25.0,00.0,34.9,27.7,10.8,0000.0,0004.26,0001.99,0001.62
2021-10-14 01:39:00,,0820.2,5.00,0.00,25.8,25.0,00.0,34.9,27.7,10.7,0000.0,0004.02,0001.97,0001.62
2021-10-14 01:40:00,,0820.2,5.00,0.00,25.8,25.0,00.0,34.9,27.6,10.7,0000.0,0002.87,0001.96,0001.62
2021-10-14 01:41:00,,0820.2,4.99,0.00,25.8,25.0,00.0,34.9,27.7,10.8,0000.0,0002.73,0001.93,0001.63
2021-10-14 01:42:00,,0820.2,5.00,0.00,25.8,25.0,00.0,34.9,27.6,10.8,0000.0,0002.71,0001.94,0001.64
2021-10-14 01:43:00,,0820.2,5.01,0.00,25.8,25.0,00.0,34.9,27.6,10.7,0000.0,0002.73,0001.96,0001.65
2021-10-14 01:44:00,,0820.2,4.99,0.00,25.8,25.0,00.0,34.9,27.6,10.7,0000.0,0002.67,0001.96,0001.64
2021-10-14 01:45:00,,0820.3,5.00,0.00,25.8,24.9,00.0,34.9,27.6,10.8,0000.0,0002.59,0001.95,0001.64
2021-10-14 01:46:00,,0820.2,5.01,0.00,25.7,24.9,00.0,34.9,27.6,10.8,0000.0,0002.55,0001.93,0001.64
2021-10-14 01:47:00,,0820.2,5.01,0.00,25.7,24.9,00.0,34.9,27.6,10.7,0000.0,0002.49,0001.90,0001.65
2021-10-14 01:48:00,,0820.2,4.98,0.00,25.7,24.9,00.0,34.9,27.6,10.7,0000.0,0002.53,0001.91,0001.65
2021-10-14 01:49:00,,0820.2,5.00,0.00,25.7,24.9,00.0,34.9,27.6,10.7,0000.0,0002.77,0001.95,0001.66
2021-10-14 01:50:00,,0820.2,4.99,0.00,25.7,24.9,00.0,34.8,27.5,10.7,0000.0,0003.23,0001.95,0001.66
2021-10-14 01:51:00,,0820.2,5.01,0.00,25.7,24.9,00.0,34.8,27.5,10.8,0000.0,0003.30,0001.96,0001.66
2021-10-14 01:52:00,,0820.2,5.00,0.00,25.7,24.9,00.0,34.8,27.5,10.8,0000.0,0003.57,0002.04,0001.66
2021-10-14 01:53:00,,0820.2,4.99,0.00,25.7,24.9,00.0,34.8,27.5,10.8,0000.0,0003.58,0002.04,0001.65
2021-10-14 01:54:00,,0820.2,5.00,0.00,25.7,24.9,00.0,34.8,27.5,10.8,0000.0,0004.04,0002.02,0001.64
2021-10-14 01:55:00,,0820.2,5.00,0.00,25.7,24.9,00.0,34.8,27.5,10.9,0000.0,0004.70,0002.00,0001.64
2021-10-14 01:56:00,,0820.3,5.00,0.00,25.7,24.9,00.0,34.8,27.5,10.9,0000.0,0004.75,0002.00,0001.62
2021-10-14 01:57:00,,0820.2,5.01,0.00,25.6,24.8,00.0,34.8,27.4,10.9,0000.0,0004.76,0002.00,0001.62
2021-10-14 01:58:00,,0820.2,5.00,0.00,25.6,24.8,00.0,34.8,27.5,10.8,0000.0,0004.79,0002.01,0001.62
2021-10-14 01:59:00,,0820.2,5.00,0.00,25.6,24.8,00.0,34.8,27.5,10.9,0000.0,0004.79,0002.02,0001.63
